Weather History for Homestead AFB, FL

Change the Weather History Date:

Friday, March 29, 2013

  Actual Average Record
Temperature  
Mean Temperature 64 °F -  
Max Temperature 74 °F 81 °F 93 °F (1950)
Min Temperature 56 °F 63 °F 46 °F (1958)
Growing Degree Days 14 (Base 50)    
Moisture  
Dew Point 49 °F    
Average Humidity 56    
Maximum Humidity 66    
Minimum Humidity 45    
Precipitation  
Precipitation 0.00 in - - ()
Sea Level Pressure  
Sea Level Pressure 30.25 in    
Wind  
Wind Speed 9 mph (NE)    
Max Wind Speed 16 mph    
Max Gust Speed 24 mph    
Visibility 10 miles    
Events      
Averages and records for this station are not official NWS values.
T = Trace of Precipitation, MM = Missing Value Source: NWS Daily Summary

Daily Weather History Graph

Daily Weather History Graph

Search for Another Location

Airport:

Trip Planner

Search our weather history database for the weather conditions in past years. The results will help you decide how hot, cold, wet, or windy it might be!

Date:

Astronomy

Mar. 29, 2013 Rise Set
Actual Time 7:15 AM EDT 7:36 PM EDT
Civil Twilight 6:52 AM EDT 7:59 PM EDT
Nautical Twilight 6:25 AM EDT 8:26 PM EDT
Astronomical Twilight 5:58 AM EDT 8:54 PM EDT
Moon 10:14 PM EDT (3/29) 8:40 AM EDT (3/29)
Length of Visible Light 13h 07m
Length of Day
12h 21m
Waning Gibbous, 93% of the Moon is Illuminated
Mar 29
Waning Gibbous
Apr 3
Last Quarter
Apr 10
New
Apr 18
First Quarter
Apr 25
Full

Hourly Weather History & Observations

Time (EDT) Temp. Dew Point Humidity Pressure Visibility Wind Dir Wind Speed Gust Speed Precip Events Conditions
12:58 AM 59.0 °F 45.0 °F 60% 30.26 in 10.0 mi North 6.9 mph - N/A   Clear
1:58 AM 57.9 °F 41.9 °F 55% 30.25 in 10.0 mi North 6.9 mph - N/A   Clear
2:58 AM 59.0 °F 41.4 °F 52% 30.24 in 10.0 mi North 6.9 mph - N/A   Clear
3:58 AM 56.5 °F 41.7 °F 58% 30.23 in 10.0 mi North 5.8 mph - N/A   Clear
4:58 AM 57.7 °F 45.3 °F 63% 30.22 in 10.0 mi NNW 8.1 mph - N/A   Partly Cloudy
5:58 AM 57.6 °F 45.7 °F 65% 30.23 in 10.0 mi North 8.1 mph - N/A   Clear
6:58 AM 56.8 °F 45.0 °F 64% 30.25 in 10.0 mi North 8.1 mph - N/A   Clear
7:58 AM 58.5 °F 44.6 °F 60% 30.26 in 10.0 mi North 9.2 mph - N/A   Clear
8:58 AM 64.8 °F 45.1 °F 49% 30.28 in 10.0 mi North 10.4 mph - N/A   Clear
9:58 AM 69.4 °F 48.0 °F 46% 30.29 in 10.0 mi North 12.7 mph - N/A   Clear
10:58 AM 72.3 °F 50.0 °F 45% 30.29 in 10.0 mi NE 12.7 mph 17.3 mph N/A   Clear
11:58 AM 73.9 °F 53.8 °F 49% 30.29 in 10.0 mi NNE 16.1 mph 20.7 mph N/A   Partly Cloudy
12:58 PM 73.4 °F 54.7 °F 52% 30.28 in 10.0 mi ENE 13.8 mph - N/A   Clear
1:58 PM 73.6 °F 53.6 °F 50% 30.26 in 10.0 mi ENE 13.8 mph 24.2 mph N/A   Clear
2:58 PM 73.8 °F 53.2 °F 49% 30.24 in 10.0 mi ENE 15.0 mph - N/A   Clear
3:58 PM 73.4 °F 52.3 °F 48% 30.22 in 10.0 mi NE 16.1 mph - N/A   Clear
4:56 PM 73.4 °F 53.6 °F 50% 30.22 in 10.0 mi ENE 12.7 mph - N/A   Clear
5:58 PM 71.8 °F 52.9 °F 51% 30.23 in 10.0 mi East 11.5 mph - N/A   Clear
6:58 PM 69.8 °F 52.9 °F 55% 30.23 in 10.0 mi ENE 9.2 mph - N/A   Clear
7:58 PM 66.6 °F 53.4 °F 63% 30.23 in 10.0 mi ENE 6.9 mph - N/A   Clear
8:58 PM 66.0 °F 53.6 °F 64% 30.24 in 10.0 mi East 4.6 mph - N/A   Clear
9:58 PM 65.3 °F 53.8 °F 66% 30.25 in 10.0 mi East 5.8 mph - N/A   Clear
10:58 PM 65.5 °F 53.1 °F 64% 30.26 in 10.0 mi East 5.8 mph - N/A   Clear
11:58 PM 64.8 °F 53.1 °F 66% 30.26 in 10.0 mi East 3.5 mph - N/A   Clear